Flag for Turkmenistan Weather past 2 weeks in Ashgabat, Turkmenistan

72 °F

Passing clouds.

Feels Like: 76 °F
Forecast: 65 / 82 °F
Wind: 17 mph from Northwest

Location: Ashgabat

Current Time: Oct 9, 2015 at 3:35:06 AM

Latest Report: Oct 9, 2015 at 2:30 AM

Visibility: N/A

Pressure: 29.98 "Hg

Humidity: 57%

Dew point: 55 °F

Location of AshgabatLocation

Historic Weather in Ashgabat — Graph


Ashgabat temperature yesterday

Maximum temperature yesterday: 102 °F (at 2:00 PM)
Minimum temperature yesterday: 75 °F (at 7:30 AM)
Average temperature yesterday: 89 °F

Past Weeks' High & Low Weather Summary

High102 °F (Oct 8, 2:00 PM)64% (Oct 4, 2:30 AM)30.21 "Hg (Oct 4, 2:30 AM)
Low54 °F (Sep 26, 6:00 AM)8% (Sep 25, 6:00 PM)29.59 "Hg (Oct 8, 4:00 AM)
Average75 °F28%30.02 "Hg
* Reported Sep 24 2:00 AM — Oct 9 2:00 AM, Ashgabat, Weather by CustomWeather, © 2015

Note: Actual official high and low records may vary slightly from our data, if they occured in-between our weather recording intervals... More about our weather records


Ashgabat weather history for previous 24 hours

Time TempWeatherWind HumidityBarometerVisibility
2:00 AM
Fri, Oct 9
72 °FPassing clouds.17 mph57%29.95 "HgN/A
1:30 AM73 °FPassing clouds.17 mph57%29.95 "HgN/A
1:00 AM75 °FPassing clouds.17 mph57%29.92 "HgN/A
12:30 AM75 °FPartly cloudy.20 mph57%29.92 "HgN/A
12:00 AM77 °FPartly cloudy.20 mph54%29.92 "Hg5 mi
11:30 PM
Thu, Oct 8
79 °FPartly cloudy.17 mph51%29.89 "Hg6 mi
11:00 PM81 °FPartly cloudy.17 mph45%29.89 "Hg5 mi
10:30 PM82 °FPartly cloudy.17 mph45%29.86 "Hg4 mi
10:00 PM84 °FPartly cloudy.20 mph40%29.83 "Hg3 mi
9:30 PM86 °FFog.24 mph33%29.80 "Hg2 mi
9:00 PM90 °FFog.22 mph20%29.77 "Hg2 mi
8:30 PM91 °FPassing clouds.13 mph14%29.74 "Hg4 mi
8:00 PM91 °FPassing clouds.13 mph14%29.74 "Hg4 mi
7:30 PM91 °FPartly sunny.15 mph15%29.71 "Hg5 mi
7:00 PM91 °FPartly sunny.8 mph15%29.68 "HgN/A
6:30 PM93 °FScattered clouds.10 mph14%29.68 "HgN/A
6:00 PM97 °FScattered clouds.6 mph12%29.65 "HgN/A
5:30 PM100 °FScattered clouds.6 mph9%29.62 "HgN/A
5:00 PM102 °FScattered clouds.6 mph9%29.62 "HgN/A
4:30 PM102 °FBroken clouds.8 mph9%29.62 "Hg5 mi
4:00 PM102 °FBroken clouds.8 mph9%29.59 "HgN/A
3:30 PM102 °FBroken clouds.8 mph9%29.59 "HgN/A
3:00 PM102 °FBroken clouds.6 mph9%29.62 "HgN/A
2:30 PM102 °FScattered clouds.6 mph9%29.59 "HgN/A
2:00 PM102 °FScattered clouds.6 mph9%29.62 "HgN/A
1:30 PM100 °FPassing clouds.6 mph10%29.62 "HgN/A
1:00 PM99 °FPassing clouds.3 mph10%29.65 "HgN/A
12:30 PM99 °FPartly sunny.3 mph10%29.65 "HgN/A
12:00 PM97 °FPartly sunny.1 mph11%29.65 "HgN/A
11:30 AM97 °FBroken clouds.3 mph11%29.65 "HgN/A
11:00 AM93 °FBroken clouds.No wind12%29.65 "Hg4 mi
10:30 AM88 °FMostly cloudy.3 mph22%29.68 "Hg2 mi
10:00 AM84 °FMostly cloudy.1 mph23%29.68 "Hg2 mi
9:00 AM82 °FMostly cloudy.3 mph21%29.65 "Hg3 mi
8:30 AM82 °FMore clouds than sun.3 mph21%29.65 "Hg3 mi
8:00 AM79 °FMostly cloudy.6 mph26%29.62 "Hg4 mi
7:30 AM75 °FPassing clouds.6 mph29%29.62 "HgN/A
7:00 AM81 °FPassing clouds.3 mph21%29.62 "HgN/A
6:30 AM81 °FPassing clouds.3 mph20%29.62 "HgN/A
6:00 AM77 °FPassing clouds.3 mph28%29.62 "Hg5 mi
5:30 AM79 °FPassing clouds.6 mph23%29.62 "HgN/A
5:00 AM79 °FPassing clouds.6 mph23%29.62 "Hg3 mi
4:30 AM86 °FPartly cloudy.6 mph15%29.62 "HgN/A
4:00 AM84 °FPartly cloudy.3 mph18%29.59 "Hg4 mi
3:30 AM82 °FPartly cloudy.6 mph20%29.62 "Hg4 mi
3:00 AM81 °FPartly cloudy.6 mph21%29.62 "Hg4 mi
Weather by CustomWeather, © 2015

See weather overviewHow to use our weather pages